Find Starlink 32639

NORAD ID: 62153 Int'l Des: 2024-224 Owner: SPXS Country: US Constellation: starlink operational
LEOCIRCULAR

現在のビュー

3D地球を読み込み中...

About Starlink 32639

Starlink 32639 (NORAD 62153) is a starlink constellation satellite (v2 mini) launched Nov 30, 2024 by SPXS of US. It operates in LEO, CIRCULAR orbit with a mass of 730.00 kg.

Starlink 32639について

説明を読み込み中...

次回通過

Passes for default location (London). Set your location on the main map for personalized predictions.

高度履歴

Loading altitude history...

軌道要素

1 62153U 24224Q 26171.38513015 .00014147 00000-0 52245-3 0 9992
2 62153 43.0017 298.3302 0001939 270.5704 89.4925 15.27589552 88022
Epoch: Jun 20, 2026 • Age: 36 hours

現在のステータス

高度 485.3 km
速度 7.62 km/s
衛星直下点 -15.66°S, 43.86°E
打ち上げ日 Nov 30, 2024
運用期間 1.5 years
タイプ internet

技術仕様

分類 Payload
質量 730.00 kg
乾燥質量 700.00 kg
総質量 730.00 kg
長さ 0.30 m
直径 4.10 m
スパン 29.00 m
形状 Box + pan
製造者 SPXS
バスタイプ Starlink V2M
フェーズステータス In Orbit
所有者/国 SPXS/US

Most Searched